NKS361 KLAS-KRNO

Flight info

Callsign NKS361
Flight time 1h 1m
Altitude 30000
Route JOHKR5 KENNO SCOLA1
Aircraft A320/M-SDE3FGHIRWY/LB1

Departure

Time 2026-05-03 22:04
Airport Harry Reid International Airport (KLAS)

Arrival

Time 2026-05-03 23:05
Airport Reno Tahoe International Airport (KRNO)
Time Latitude Longitude Altitude Speed Heading
2026-05-03 21:49 36.08569 -115.15464 2098 ft 0 kts 146°
2026-05-03 21:54 36.08586 -115.15477 2098 ft 4 kts 148°
2026-05-03 21:54 36.08609 -115.15495 2098 ft 4 kts 150°
2026-05-03 21:54 36.08633 -115.15510 2098 ft 4 kts 154°
2026-05-03 21:55 36.08657 -115.15524 2098 ft 4 kts 163°
2026-05-03 21:55 36.08683 -115.15529 2098 ft 4 kts 193°
2026-05-03 21:55 36.08690 -115.15526 2098 ft 0 kts 206°
2026-05-03 21:58 36.08677 -115.15534 2098 ft 5 kts 206°
2026-05-03 21:58 36.08620 -115.15568 2099 ft 13 kts 205°
2026-05-03 21:58 36.08529 -115.15622 2100 ft 15 kts 205°
2026-05-03 21:59 36.08443 -115.15660 2103 ft 15 kts 158°
2026-05-03 21:59 36.08331 -115.15595 2100 ft 20 kts 155°
2026-05-03 21:59 36.08188 -115.15513 2098 ft 24 kts 155°
2026-05-03 21:59 36.08033 -115.15424 2098 ft 25 kts 155°
2026-05-03 22:00 36.07879 -115.15336 2099 ft 24 kts 154°
2026-05-03 22:00 36.07806 -115.15185 2101 ft 23 kts 92°
2026-05-03 22:00 36.07794 -115.14947 2100 ft 30 kts 94°
2026-05-03 22:00 36.07776 -115.14683 2098 ft 32 kts 95°
2026-05-03 22:01 36.07761 -115.14410 2097 ft 32 kts 94°
2026-05-03 22:01 36.07754 -115.14131 2094 ft 33 kts 90°
2026-05-03 22:01 36.07755 -115.13846 2093 ft 33 kts 90°
2026-05-03 22:01 36.07753 -115.13559 2092 ft 34 kts 90°
2026-05-03 22:02 36.07753 -115.13265 2087 ft 35 kts 90°
2026-05-03 22:02 36.07753 -115.12956 2076 ft 38 kts 89°
2026-05-03 22:02 36.07755 -115.12632 2063 ft 35 kts 89°
2026-05-03 22:02 36.07755 -115.12381 2056 ft 29 kts 90°
2026-05-03 22:03 36.07756 -115.12178 2050 ft 16 kts 92°
2026-05-03 22:03 36.07673 -115.12124 2051 ft 15 kts 182°
2026-05-03 22:03 36.07643 -115.12205 2050 ft 17 kts 271°
2026-05-03 22:03 36.07642 -115.12634 2065 ft 81 kts 270°
2026-05-03 22:04 36.07641 -115.13559 2091 ft 132 kts 270°
2026-05-03 22:04 36.07639 -115.14876 2104 ft 172 kts 270°
2026-05-03 22:04 36.07643 -115.16480 2338 ft 191 kts 267°
2026-05-03 22:04 36.07644 -115.18105 3153 ft 188 kts 266°
2026-05-03 22:05 36.07639 -115.19714 3832 ft 188 kts 263°
2026-05-03 22:05 36.07546 -115.21367 4071 ft 201 kts 253°
2026-05-03 22:05 36.07270 -115.23158 4216 ft 223 kts 252°
2026-05-03 22:05 36.06802 -115.25022 4407 ft 233 kts 232°
2026-05-03 22:06 36.05635 -115.26428 4732 ft 242 kts 203°
2026-05-03 22:06 36.04008 -115.27061 5279 ft 250 kts 193°
2026-05-03 22:06 36.02327 -115.27727 6021 ft 255 kts 198°
2026-05-03 22:06 36.00660 -115.28522 6864 ft 257 kts 199°
2026-05-03 22:07 35.99001 -115.29384 7617 ft 263 kts 204°
2026-05-03 22:07 35.97370 -115.30458 8394 ft 267 kts 206°
2026-05-03 22:07 35.95758 -115.31555 9220 ft 269 kts 207°
2026-05-03 22:07 35.94104 -115.32678 9991 ft 273 kts 206°
2026-05-03 22:08 35.92433 -115.33802 10753 ft 274 kts 206°
2026-05-03 22:08 35.90780 -115.34976 11494 ft 277 kts 214°
2026-05-03 22:08 35.89437 -115.36715 12162 ft 287 kts 233°
2026-05-03 22:08 35.88655 -115.39007 12830 ft 297 kts 253°
2026-05-03 22:09 35.88543 -115.41584 13579 ft 305 kts 266°
2026-05-03 22:09 35.88606 -115.44210 14213 ft 308 kts 266°
2026-05-03 22:09 35.88673 -115.46868 14866 ft 310 kts 267°
2026-05-03 22:10 35.88796 -115.52237 16149 ft 315 kts 267°
2026-05-03 22:10 35.88852 -115.54949 16829 ft 317 kts 266°
2026-05-03 22:10 35.88904 -115.57695 17252 ft 328 kts 266°
2026-05-03 22:10 35.88952 -115.60584 17389 ft 346 kts 266°
2026-05-03 22:11 35.89002 -115.63617 17636 ft 360 kts 267°
2026-05-03 22:11 35.89039 -115.65671 17955 ft 364 kts 267°
2026-05-03 22:11 35.89098 -115.68810 18479 ft 367 kts 268°
2026-05-03 22:11 35.89160 -115.71968 19042 ft 369 kts 268°
2026-05-03 22:12 35.89223 -115.75129 19639 ft 369 kts 267°
2026-05-03 22:12 35.89283 -115.78297 20234 ft 369 kts 267°
2026-05-03 22:12 35.89359 -115.82496 21005 ft 369 kts 267°
2026-05-03 22:12 35.89397 -115.84635 21380 ft 369 kts 266°
2026-05-03 22:13 35.89453 -115.87807 21934 ft 370 kts 268°
2026-05-03 22:13 35.89779 -115.90935 22435 ft 377 kts 278°
2026-05-03 22:13 35.90655 -115.94016 22973 ft 386 kts 290°
2026-05-03 22:13 35.92091 -115.96872 23490 ft 397 kts 301°
2026-05-03 22:14 35.94002 -115.99379 23943 ft 404 kts 308°
2026-05-03 22:14 35.95998 -116.01819 24383 ft 405 kts 308°
2026-05-03 22:14 35.98000 -116.04273 24823 ft 405 kts 307°
2026-05-03 22:14 35.99996 -116.06725 25323 ft 405 kts 307°
2026-05-03 22:15 36.01993 -116.09186 25873 ft 404 kts 306°
2026-05-03 22:15 36.03973 -116.11633 26386 ft 403 kts 306°
2026-05-03 22:15 36.05950 -116.14081 26872 ft 401 kts 305°
2026-05-03 22:15 36.07916 -116.16520 27375 ft 400 kts 305°
2026-05-03 22:16 36.09880 -116.18956 27877 ft 399 kts 304°
2026-05-03 22:16 36.11837 -116.21387 28396 ft 399 kts 304°
2026-05-03 22:16 36.13798 -116.23820 28826 ft 400 kts 304°
2026-05-03 22:16 36.15761 -116.26255 29248 ft 401 kts 304°
2026-05-03 22:17 36.17730 -116.28700 29739 ft 400 kts 303°
2026-05-03 22:17 36.19693 -116.31143 30150 ft 399 kts 303°
2026-05-03 22:17 36.21643 -116.33570 30653 ft 396 kts 303°
2026-05-03 22:17 36.23578 -116.35976 31159 ft 392 kts 303°
2026-05-03 22:18 36.25495 -116.38360 31636 ft 389 kts 303°
2026-05-03 22:18 36.27401 -116.40731 32114 ft 387 kts 303°
2026-05-03 22:18 36.29298 -116.43081 32626 ft 385 kts 303°
2026-05-03 22:18 36.31216 -116.45399 33066 ft 385 kts 303°
2026-05-03 22:19 36.33149 -116.47688 33529 ft 383 kts 304°
2026-05-03 22:19 36.35078 -116.49952 33961 ft 381 kts 303°
2026-05-03 22:19 36.36998 -116.52210 34314 ft 379 kts 303°
2026-05-03 22:19 36.38906 -116.54466 34586 ft 378 kts 303°
2026-05-03 22:20 36.40809 -116.56732 34794 ft 379 kts 303°
2026-05-03 22:20 36.42711 -116.59010 35005 ft 381 kts 303°
2026-05-03 22:20 36.44619 -116.61298 35156 ft 381 kts 303°
2026-05-03 22:20 36.46527 -116.63536 35392 ft 383 kts 304°
2026-05-03 22:21 36.48497 -116.65785 35591 ft 386 kts 305°
2026-05-03 22:21 36.50494 -116.68039 35708 ft 390 kts 306°
2026-05-03 22:21 36.52515 -116.70315 35729 ft 393 kts 306°
2026-05-03 22:22 36.56573 -116.74895 35726 ft 394 kts 306°
2026-05-03 22:22 36.60624 -116.79494 35734 ft 394 kts 305°
2026-05-03 22:23 36.64666 -116.84108 35749 ft 396 kts 306°
2026-05-03 22:23 36.68752 -116.88800 35737 ft 401 kts 306°
2026-05-03 22:24 36.72903 -116.93487 35736 ft 407 kts 310°
2026-05-03 22:24 36.75284 -116.95501 35740 ft 421 kts 319°
2026-05-03 22:24 36.77896 -116.97201 35740 ft 424 kts 321°
2026-05-03 22:25 36.83137 -117.00566 35764 ft 424 kts 322°
2026-05-03 22:25 36.88394 -117.03971 35713 ft 427 kts 321°
2026-05-03 22:26 36.93645 -117.07383 35725 ft 429 kts 322°
2026-05-03 22:26 36.98956 -117.10834 35743 ft 431 kts 322°
2026-05-03 22:27 37.04275 -117.14298 35747 ft 432 kts 323°
2026-05-03 22:27 37.09623 -117.17791 35746 ft 435 kts 323°
2026-05-03 22:28 37.14997 -117.21306 35769 ft 436 kts 323°
2026-05-03 22:28 37.20376 -117.24824 35796 ft 437 kts 324°
2026-05-03 22:29 37.25776 -117.28369 35772 ft 440 kts 324°
2026-05-03 22:29 37.30989 -117.32281 35769 ft 430 kts 313°
2026-05-03 22:30 37.35535 -117.37136 35775 ft 429 kts 311°
2026-05-03 22:30 37.40077 -117.42000 35787 ft 429 kts 312°
2026-05-03 22:31 37.44609 -117.46842 35790 ft 430 kts 312°
2026-05-03 22:31 37.49187 -117.51696 35798 ft 433 kts 315°
2026-05-03 22:32 37.54293 -117.55856 35817 ft 438 kts 321°
2026-05-03 22:32 37.59465 -117.59939 35793 ft 439 kts 321°
2026-05-03 22:33 37.64646 -117.64043 35787 ft 440 kts 321°
2026-05-03 22:33 37.69833 -117.68155 35789 ft 441 kts 321°
2026-05-03 22:34 37.75030 -117.72281 35793 ft 442 kts 322°
2026-05-03 22:34 37.80235 -117.76426 35787 ft 443 kts 322°
2026-05-03 22:35 37.85449 -117.80576 35777 ft 443 kts 322°
2026-05-03 22:35 37.90664 -117.84742 35796 ft 443 kts 322°
2026-05-03 22:36 37.95878 -117.88920 35785 ft 444 kts 323°
2026-05-03 22:36 38.01111 -117.93117 35789 ft 445 kts 323°
2026-05-03 22:37 38.06308 -117.97293 35791 ft 445 kts 322°
2026-05-03 22:37 38.11537 -118.01500 35806 ft 446 kts 324°
2026-05-03 22:38 38.16777 -118.05720 35811 ft 446 kts 324°
2026-05-03 22:38 38.22017 -118.09950 35810 ft 446 kts 323°
2026-05-03 22:39 38.27253 -118.14184 35812 ft 446 kts 324°
2026-05-03 22:39 38.32510 -118.18420 35767 ft 449 kts 323°
2026-05-03 22:39 38.35152 -118.20560 35510 ft 450 kts 323°
2026-05-03 22:40 38.37787 -118.22705 35262 ft 448 kts 324°
2026-05-03 22:40 38.40393 -118.24847 34832 ft 444 kts 321°
2026-05-03 22:40 38.42796 -118.27283 34382 ft 439 kts 314°
2026-05-03 22:40 38.44986 -118.29980 33938 ft 437 kts 314°
2026-05-03 22:41 38.47169 -118.32678 33435 ft 436 kts 314°
2026-05-03 22:41 38.49338 -118.35352 32988 ft 432 kts 315°
2026-05-03 22:41 38.51496 -118.38010 32541 ft 429 kts 315°
2026-05-03 22:41 38.53636 -118.40648 32074 ft 426 kts 315°
2026-05-03 22:42 38.55759 -118.43270 31630 ft 424 kts 315°
2026-05-03 22:42 38.57873 -118.45891 31175 ft 422 kts 315°
2026-05-03 22:42 38.59974 -118.48498 30719 ft 420 kts 315°
2026-05-03 22:42 38.62066 -118.51094 30274 ft 419 kts 316°
2026-05-03 22:43 38.64153 -118.53690 29801 ft 418 kts 316°
2026-05-03 22:43 38.66235 -118.56279 29349 ft 416 kts 316°
2026-05-03 22:43 38.68304 -118.58847 28814 ft 413 kts 316°
2026-05-03 22:43 38.70361 -118.61400 28401 ft 410 kts 316°
2026-05-03 22:44 38.72403 -118.63936 27966 ft 407 kts 316°
2026-05-03 22:44 38.74427 -118.66455 27569 ft 405 kts 316°
2026-05-03 22:44 38.76460 -118.68987 27054 ft 408 kts 316°
2026-05-03 22:44 38.78493 -118.71522 26564 ft 407 kts 316°
2026-05-03 22:45 38.80526 -118.74052 26075 ft 407 kts 316°
2026-05-03 22:45 38.82556 -118.76579 25593 ft 407 kts 316°
2026-05-03 22:45 38.84584 -118.79107 25103 ft 407 kts 316°
2026-05-03 22:45 38.86593 -118.81610 24622 ft 407 kts 316°
2026-05-03 22:46 38.88627 -118.84145 24126 ft 407 kts 316°
2026-05-03 22:46 38.90659 -118.86680 23644 ft 408 kts 316°
2026-05-03 22:46 38.92690 -118.89219 23121 ft 407 kts 316°
2026-05-03 22:46 38.94717 -118.91757 22617 ft 405 kts 315°
2026-05-03 22:47 38.96729 -118.94277 22134 ft 403 kts 316°
2026-05-03 22:47 38.98727 -118.96780 21663 ft 400 kts 315°
2026-05-03 22:47 39.00710 -118.99272 21170 ft 398 kts 315°
2026-05-03 22:47 39.02681 -119.01748 20706 ft 395 kts 315°
2026-05-03 22:48 39.04639 -119.04212 20235 ft 392 kts 315°
2026-05-03 22:48 39.06585 -119.06658 19755 ft 390 kts 315°
2026-05-03 22:48 39.08517 -119.09088 19297 ft 387 kts 315°
2026-05-03 22:48 39.10440 -119.11510 18832 ft 385 kts 315°
2026-05-03 22:49 39.12353 -119.13923 18377 ft 384 kts 315°
2026-05-03 22:49 39.14255 -119.16328 17944 ft 381 kts 315°
2026-05-03 22:49 39.16124 -119.18694 17732 ft 370 kts 315°
2026-05-03 22:49 39.17938 -119.20987 17464 ft 363 kts 315°
2026-05-03 22:50 39.19735 -119.23257 17029 ft 361 kts 316°
2026-05-03 22:50 39.21523 -119.25510 16675 ft 357 kts 316°
2026-05-03 22:50 39.23293 -119.27742 16271 ft 355 kts 316°
2026-05-03 22:50 39.25044 -119.29958 15590 ft 352 kts 316°
2026-05-03 22:51 39.26778 -119.32158 15012 ft 347 kts 316°
2026-05-03 22:51 39.28484 -119.34323 14571 ft 341 kts 316°
2026-05-03 22:51 39.30156 -119.36447 14177 ft 342 kts 316°
2026-05-03 22:51 39.31853 -119.38601 13818 ft 342 kts 317°
2026-05-03 22:52 39.33525 -119.40723 13646 ft 334 kts 316°
2026-05-03 22:52 39.35193 -119.42803 13252 ft 332 kts 321°
2026-05-03 22:52 39.37036 -119.44581 12886 ft 328 kts 326°
2026-05-03 22:52 39.38835 -119.46258 12719 ft 309 kts 326°
2026-05-03 22:53 39.40531 -119.47842 12588 ft 293 kts 326°
2026-05-03 22:53 39.42157 -119.49361 12491 ft 284 kts 326°
2026-05-03 22:53 39.43741 -119.50840 12298 ft 278 kts 326°
2026-05-03 22:53 39.45340 -119.52331 11634 ft 291 kts 326°
2026-05-03 22:54 39.47021 -119.53892 11055 ft 297 kts 328°
2026-05-03 22:54 39.48823 -119.54968 10927 ft 274 kts 349°
2026-05-03 22:54 39.50650 -119.55497 10965 ft 265 kts 352°
2026-05-03 22:54 39.52448 -119.55952 10970 ft 263 kts 353°
2026-05-03 22:55 39.54250 -119.56408 10972 ft 264 kts 352°
2026-05-03 22:55 39.56048 -119.56857 10969 ft 262 kts 353°
2026-05-03 22:55 39.57838 -119.57305 10968 ft 262 kts 352°
2026-05-03 22:55 39.59625 -119.57748 10963 ft 261 kts 353°
2026-05-03 22:56 39.61411 -119.58193 10957 ft 261 kts 352°
2026-05-03 22:56 39.63176 -119.58622 10950 ft 261 kts 353°
2026-05-03 22:56 39.64968 -119.59063 10949 ft 262 kts 353°
2026-05-03 22:56 39.66757 -119.59495 10936 ft 260 kts 353°
2026-05-03 22:57 39.68538 -119.59932 10992 ft 261 kts 352°
2026-05-03 22:57 39.70319 -119.60373 10990 ft 260 kts 353°
2026-05-03 22:57 39.72105 -119.60816 10990 ft 262 kts 353°
2026-05-03 22:57 39.73892 -119.61267 10986 ft 261 kts 352°
2026-05-03 22:58 39.75072 -119.61564 10984 ft 259 kts 353°
2026-05-03 22:58 39.76769 -119.62216 10882 ft 255 kts 333°
2026-05-03 22:58 39.78031 -119.63770 10770 ft 251 kts 300°
2026-05-03 22:58 39.78647 -119.65857 10681 ft 242 kts 285°
2026-05-03 22:59 39.79047 -119.67941 10486 ft 235 kts 283°
2026-05-03 22:59 39.79416 -119.70007 10198 ft 234 kts 281°
2026-05-03 22:59 39.79435 -119.72086 9910 ft 229 kts 253°
2026-05-03 22:59 39.78765 -119.73907 9639 ft 221 kts 226°
2026-05-03 23:00 39.77593 -119.75109 9371 ft 212 kts 199°
2026-05-03 23:00 39.76200 -119.75528 9129 ft 202 kts 176°
2026-05-03 23:00 39.74798 -119.75599 8883 ft 202 kts 177°
2026-05-03 23:00 39.73392 -119.75684 8635 ft 203 kts 180°
2026-05-03 23:01 39.71989 -119.75877 8397 ft 203 kts 181°
2026-05-03 23:01 39.70588 -119.76126 8154 ft 202 kts 182°
2026-05-03 23:01 39.69196 -119.76385 7918 ft 202 kts 182°
2026-05-03 23:01 39.67819 -119.76596 7679 ft 199 kts 177°
2026-05-03 23:02 39.66436 -119.76603 7447 ft 198 kts 175°
2026-05-03 23:02 39.65062 -119.76610 7197 ft 198 kts 174°
2026-05-03 23:02 39.63682 -119.76590 6970 ft 197 kts 173°
2026-05-03 23:02 39.62304 -119.76552 6710 ft 195 kts 175°
2026-05-03 23:03 39.61007 -119.76605 6528 ft 178 kts 177°
2026-05-03 23:03 39.59828 -119.76615 6336 ft 165 kts 172°
2026-05-03 23:03 39.58704 -119.76589 6024 ft 161 kts 174°
2026-05-03 23:03 39.57589 -119.76621 5808 ft 161 kts 179°
2026-05-03 23:04 39.56468 -119.76641 5613 ft 163 kts 177°
2026-05-03 23:04 39.55336 -119.76643 5378 ft 163 kts 181°
2026-05-03 23:04 39.54202 -119.76659 5168 ft 163 kts 180°
2026-05-03 23:04 39.53067 -119.76666 4972 ft 163 kts 180°
2026-05-03 23:05 39.51951 -119.76672 4757 ft 161 kts 179°
2026-05-03 23:05 39.50845 -119.76677 4602 ft 150 kts 179°
2026-05-03 23:05 39.49998 -119.76678 4591 ft 81 kts 180°
2026-05-03 23:05 39.49663 -119.76681 4595 ft 35 kts 181°
2026-05-03 23:06 39.49468 -119.76779 4593 ft 30 kts 209°
2026-05-03 23:06 39.49323 -119.76919 4593 ft 24 kts 236°
2026-05-03 23:06 39.49253 -119.77100 4591 ft 18 kts 272°
2026-05-03 23:06 39.49350 -119.77155 4591 ft 19 kts
2026-05-03 23:07 39.49502 -119.77155 4588 ft 25 kts
2026-05-03 23:07 39.49690 -119.77153 4587 ft 28 kts
2026-05-03 23:07 39.49883 -119.77152 4588 ft 28 kts
2026-05-03 23:07 39.50077 -119.77152 4589 ft 28 kts 360°
2026-05-03 23:08 39.50274 -119.77151 4591 ft 28 kts 360°
2026-05-03 23:08 39.50473 -119.77151 4591 ft 29 kts 360°
2026-05-03 23:08 39.50599 -119.77152 4591 ft 10 kts
2026-05-03 23:08 39.50666 -119.77152 4592 ft 6 kts 352°
2026-05-03 23:09 39.50684 -119.77196 4589 ft 6 kts 283°
2026-05-03 23:09 39.50688 -119.77220 4590 ft 0 kts 282°